Location: Newark
(36.6294°S, 72.9458°W)
Time: 21:13:45
(UTC+00:00)

Hubble Space Telescope - Visible Passes

Search period start: 19 January 2020 00:00
Search period end: 29 January 2020 00:00
Orbit: 536 x 540 km, 28.5° (Epoch: 19 January)

Date Brightness Start Highest point End Pass type
(mag) Time Alt. Az. Time Alt. Az. Time Alt. Az.
19 Jan 2.5 08:48:55 15° NNW 08:49:25 15° NNW 08:51:48 10° NNE visible
20 Jan 2.9 08:39:40 12° N 08:39:40 12° N 08:40:31 10° N visible
24 Jan 2.9 01:12:04 10° N 01:13:00 11° NNE 01:13:00 11° NNE visible
25 Jan 2.6 01:00:32 10° NNW 01:02:39 14° NNE 01:03:36 13° NNE visible
26 Jan 2.5 00:49:21 10° NNW 00:51:55 16° NNE 00:54:00 12° NE visible
26 Jan 3.3 02:29:05 10° NW 02:29:21 11° NW 02:29:21 11° NW visible
27 Jan 2.4 00:38:18 10° NNW 00:41:12 18° NNE 00:44:06 10° ENE visible
27 Jan 2.9 02:18:21 10° NW 02:19:35 17° NW 02:19:35 17° NW visible
28 Jan 2.3 00:27:22 10° NW 00:30:29 20° NNE 00:33:36 10° ENE visible
28 Jan 2.5 02:07:39 10° WNW 02:09:40 21° NW 02:09:40 21° NW visible
